GW3840 Weather Reports


time (UTC)temp
C
wind
direction
speed
KPH
gust
KPH
rain 1hr
cm
rain 24hr
cm
rain mn
cm
humidity
%
barometer
mb
20260903074642 20 120 1.6 14.5 0.00 0.00 0.00 77 1012.5
20260903074137 20 89 1.6 1.6 0.00 0.00 0.00 78 1012.2
20260903073637 20 214 1.6 4.8 0.00 0.00 0.00 78 1012.2
20260903073133 20 130 1.6 4.8 0.00 0.00 0.00 78 1012.5
20260903072629 20 141 3.2 4.8 0.00 0.00 0.00 78 1012.5
20260903072125 20 12 3.2 4.8 0.00 0.00 0.00 78 1012.5
20260903071622 20 119 1.6 4.8 0.00 0.00 0.00 77 1012.8
20260903071117 20 77 3.2 12.9 0.00 0.00 0.00 77 1012.6
20260903070617 21 71 3.2 6.4 0.00 0.00 0.00 77 1012.8
20260903070113 21 87 4.8 6.4 0.00 0.00 0.00 78 1012.6
20260903065612 21 95 3.2 4.8 0.00 0.00 0.00 78 1012.9
20260903065106 21 82 1.6 3.2 0.00 0.00 0.00 79 1013.0
20260903064600 21 118 1.6 6.4 0.00 0.00 0.00 78 1013.2
20260903064055 21 125 0.0 3.2 0.00 0.00 0.00 78 1013.1
20260903063550 21 66 3.2 4.8 0.00 0.00 0.00 77 1013.0
20260903063046 21 48 1.6 3.2 0.00 0.00 0.00 77 1012.9
20260903062541 21 108 1.6 4.8 0.00 0.00 0.00 77 1013.0
20260903062037 21 119 4.8 4.8 0.00 0.00 0.00 77 1013.2
20260903061532 21 55 0.0 4.8 0.00 0.00 0.00 77 1013.1
20260903061032 21 73 4.8 9.7 0.00 0.00 0.00 76 1013.0
20260903060531 21 69 1.6 4.8 0.00 0.00 0.00 76 1012.9
20260903060027 21 120 0.0 4.8 0.00 0.00 0.00 77 1012.9
20260903055524 21 148 0.0 4.8 0.00 0.00 0.00 77 1013.1
20260903055023 21 123 1.6 4.8 0.00 0.00 0.00 77 1013.0
20260903054518 21 189 0.0 6.4 0.00 0.00 0.00 77 1013.2
20260903054014 21 138 0.0 3.2 0.00 0.00 0.00 77 1013.0
20260903053508 21 109 1.6 3.2 0.00 0.00 0.00 77 1013.0
20260903053005 21 21 1.6 4.8 0.00 0.00 0.00 77 1013.2
20260903052501 21 78 3.2 4.8 0.00 0.00 0.00 77 1013.1
20260903051956 21 88 1.6 4.8 0.00 0.00 0.00 76 1013.2
20260903051451 21 112 1.6 4.8 0.00 0.00 0.00 76 1013.3
20260903050947 21 83 0.0 4.8 0.00 0.00 0.00 76 1013.5
20260903050446 21 67 4.8 4.8 0.00 0.00 0.00 75 1013.4
20260903045941 21 83 4.8 12.9 0.00 0.00 0.00 74 1013.5
20260903045436 21 96 3.2 11.3 0.00 0.00 0.00 75 1013.4
20260903044932 22 49 3.2 9.7 0.00 0.00 0.00 74 1013.4
20260903044427 21 139 4.8 9.7 0.00 0.00 0.00 75 1013.7
20260903043924 22 136 1.6 4.8 0.00 0.00 0.00 75 1013.5
20260903043419 22 59 1.6 4.8 0.00 0.00 0.00 76 1013.6
20260903042917 22 107 1.6 6.4 0.00 0.00 0.00 75 1013.5
20260903042413 22 99 1.6 6.4 0.00 0.00 0.00 74 1013.4
20260903041908 22 109 1.6 4.8 0.00 0.00 0.00 74 1013.6
20260903041405 22 161 1.6 3.2 0.00 0.00 0.00 74 1013.5
20260903040900 22 66 3.2 6.4 0.00 0.00 0.00 74 1013.8
20260903040359 22 98 3.2 9.7 0.00 0.00 0.00 74 1013.5
20260903035855 22 69 3.2 4.8 0.00 0.00 0.00 74 1013.6
20260903035350 22 92 4.8 6.4 0.00 0.00 0.00 74 1013.6
20260903034846 22 88 1.6 4.8 0.00 0.00 0.00 73 1013.7
20260903034341 22 93 3.2 11.3 0.00 0.00 0.00 73 1013.6
20260903033835 22 111 3.2 9.7 0.00 0.00 0.00 73 1013.7
20260903033331 23 33 1.6 6.4 0.00 0.00 0.00 72 1013.6
20260903032830 23 95 4.8 9.7 0.00 0.00 0.00 71 1013.6
20260903032326 23 78 3.2 6.4 0.00 0.00 0.00 71 1013.5
20260903031821 23 106 3.2 6.4 0.00 0.00 0.00 71 1013.6
20260903031320 23 86 3.2 4.8 0.00 0.00 0.00 70 1013.7
20260903030816 23 101 3.2 6.4 0.00 0.00 0.00 70 1013.7
20260903030312 23 79 3.2 9.7 0.00 0.00 0.00 69 1013.6
20260903025808 23 103 3.2 6.4 0.00 0.00 0.00 69 1013.6
20260903025305 23 87 1.6 3.2 0.00 0.00 0.00 70 1013.8
20260903024757 23 67 0.0 6.4 0.00 0.00 0.00 70 1013.5
20260903024257 23 66 1.6 3.2 0.00 0.00 0.00 70 1013.5
20260903023753 23 81 3.2 3.2 0.00 0.00 0.00 71 1013.7
20260903023248 23 170 0.0 1.6 0.00 0.00 0.00 70 1013.6
20260903022742 23 177 0.0 3.2 0.00 0.00 0.00 70 1013.4
20260903022241 23 89 1.6 3.2 0.00 0.00 0.00 70 1013.7
20260903021736 23 37 1.6 3.2 0.00 0.00 0.00 70 1013.5
20260903021232 23 178 0.0 3.2 0.00 0.00 0.00 69 1013.8
20260903020731 23 100 1.6 1.6 0.00 0.00 0.00 69 1013.6
20260903020226 23 77 0.0 3.2 0.00 0.00 0.00 68 1013.5
20260903015722 23 186 0.0 1.6 0.00 0.00 0.00 68 1013.6
20260903015217 23 116 0.0 1.6 0.00 0.00 0.00 67 1013.6
20260903014712 23 189 0.0 0.0 0.00 0.00 0.00 66 1013.5
20260903014211 24 144 0.0 0.0 0.00 0.00 0.00 65 1013.5
20260903013706 24 160 0.0 1.6 0.00 0.00 0.00 64 1013.7
20260903013205 25 66 0.0 3.2 0.00 0.00 0.00 62 1013.3
20260903012704 25 115 1.6 3.2 0.00 0.00 0.00 62 1013.5
20260903012203 25 85 1.6 4.8 0.00 0.00 0.00 61 1013.5
20260903011658 25 191 0.0 0.0 0.00 0.00 0.00 60 1013.3
20260903011158 25 158 0.0 4.8 0.00 0.00 0.00 59 1013.0
20260903010653 25 69 3.2 4.8 0.00 0.00 0.00 58 1013.2
20260903010153 25 86 3.2 4.8 0.00 0.00 0.00 58 1013.2
20260903005646 26 156 0.0 3.2 0.00 0.00 0.00 57 1013.2
20260903005142 26 155 1.6 1.6 0.00 0.00 0.00 57 1013.1
20260903004637 26 162 0.0 3.2 0.00 0.00 0.00 56 1013.1
20260903004131 26 90 3.2 3.2 0.00 0.00 0.00 56 1013.1
20260903003627 26 85 1.6 3.2 0.00 0.00 0.00 55 1013.2
20260903003122 26 34 3.2 9.7 0.00 0.00 0.00 55 1013.0
20260903002618 26 70 1.6 3.2 0.00 0.00 0.00 55 1012.9
20260903002112 26 113 4.8 4.8 0.00 0.00 0.00 54 1012.9
20260903001607 26 124 1.6 4.8 0.00 0.00 0.00 55 1013.1
20260903001106 26 79 3.2 9.7 0.00 0.00 0.00 54 1012.7
20260903000602 26 110 1.6 4.8 0.00 0.00 0.00 54 1012.8
20260903000055 26 78 4.8 6.4 0.00 0.00 0.00 54 1012.6
20260902235549 27 113 1.6 11.3 0.00 0.00 0.00 54 1012.8
20260902235044 27 117 3.2 6.4 0.00 0.00 0.00 52 1012.8
20260902234544 27 119 6.4 9.7 0.00 0.00 0.00 52 1013.0
20260902234042 27 112 3.2 6.4 0.00 0.00 0.00 52 1013.0
20260902233537 27 2 3.2 6.4 0.00 0.00 0.00 52 1013.0
20260902233032 27 171 3.2 4.8 0.00 0.00 0.00 52 1013.2
20260902232531 28 59 6.4 12.9 0.00 0.00 0.00 51 1012.9
20260902232025 28 77 1.6 6.4 0.00 0.00 0.00 52 1013.0
20260902231520 28 14 3.2 9.7 0.00 0.00 0.00 50 1013.0
20260902231015 28 83 4.8 9.7 0.00 0.00 0.00 50 1013.0
20260902230514 28 87 4.8 6.4 0.00 0.00 0.00 50 1012.9
20260902230009 28 68 1.6 11.3 0.00 0.00 0.00 50 1012.9
20260902225504 28 82 1.6 4.8 0.00 0.00 0.00 50 1013.0
20260902225003 28 89 3.2 9.7 0.00 0.00 0.00 50 1013.3
20260902224502 28 71 1.6 3.2 0.00 0.00 0.00 50 1013.3
20260902223954 28 60 8.0 11.3 0.00 0.00 0.00 49 1013.1
20260902223448 28 74 6.4 6.4 0.00 0.00 0.00 49 1013.3
20260902222948 28 135 3.2 4.8 0.00 0.00 0.00 50 1013.1
20260902222446 28 113 3.2 11.3 0.00 0.00 0.00 49 1013.1
20260902221940 29 61 6.4 9.7 0.00 0.00 0.00 47 1013.3
20260902221439 29 86 6.4 11.3 0.00 0.00 0.00 49 1013.0
20260902220935 28 91 3.2 4.8 0.00 0.00 0.00 51 1013.1
20260902220430 29 123 4.8 9.7 0.00 0.00 0.00 47 1013.1
20260902215924 28 208 3.2 11.3 0.00 0.00 0.00 48 1013.3
20260902215420 29 25 4.8 6.4 0.00 0.00 0.00 49 1013.3
20260902214916 30 61 6.4 12.9 0.00 0.00 0.00 47 1013.3
20260902214414 29 161 3.2 4.8 0.00 0.00 0.00 47 1013.2
20260902213909 28 41 3.2 6.4 0.00 0.00 0.00 48 1013.4
20260902213406 29 123 9.7 12.9 0.00 0.00 0.00 47 1013.6
20260902212904 30 58 6.4 6.4 0.00 0.00 0.00 46 1013.3
20260902212400 30 183 3.2 11.3 0.00 0.00 0.00 45 1013.3
20260902211856 28 98 3.2 6.4 0.00 0.00 0.00 46 1013.5
20260902211352 28 165 4.8 9.7 0.00 0.00 0.00 48 1013.5
20260902210846 28 144 3.2 9.7 0.00 0.00 0.00 46 1013.7
20260902210340 28 87 4.8 11.3 0.00 0.00 0.00 48 1013.5
20260902205839 29 84 8.0 14.5 0.00 0.00 0.00 47 1013.7
20260902205333 29 53 3.2 4.8 0.00 0.00 0.00 47 1013.8
20260902204829 28 114 3.2 9.7 0.00 0.00 0.00 46 1013.9
20260902204323 29 56 4.8 6.4 0.00 0.00 0.00 46 1014.0
20260902203819 28 36 6.4 16.1 0.00 0.00 0.00 48 1014.1
20260902203314 30 77 3.2 4.8 0.00 0.00 0.00 46 1013.7
20260902202814 28 238 4.8 9.7 0.00 0.00 0.00 45 1013.9
20260902202311 28 196 0.0 9.7 0.00 0.00 0.00 47 1013.8
20260902201807 28 167 4.8 6.4 0.00 0.00 0.00 51 1013.9
20260902201306 28 112 6.4 11.3 0.00 0.00 0.00 47 1013.9
20260902200801 28 46 4.8 6.4 0.00 0.00 0.00 49 1014.0
20260902200257 28 81 6.4 11.3 0.00 0.00 0.00 44 1014.1
20260902195753 28 42 6.4 9.7 0.00 0.00 0.00 50 1013.9
20260902195252 28 87 6.4 9.7 0.00 0.00 0.00 49 1014.0
20260902194752 28 137 8.0 14.5 0.00 0.00 0.00 50 1014.1
20260902194247 28 4 1.6 4.8 0.00 0.00 0.00 50 1014.3
20260902193743 28 52 4.8 9.7 0.00 0.00 0.00 54 1014.1
20260902193238 29 67 1.6 3.2 0.00 0.00 0.00 50 1014.3
20260902192736 28 73 4.8 11.3 0.00 0.00 0.00 51 1014.5
20260902192235 29 68 4.8 6.4 0.00 0.00 0.00 50 1014.4
20260902191730 28 201 1.6 1.6 0.00 0.00 0.00 50 1014.5
20260902191225 28 81 1.6 6.4 0.00 0.00 0.00 52 1014.5
20260902190720 28 37 1.6 9.7 0.00 0.00 0.00 48 1014.5
20260902190220 27 114 3.2 6.4 0.00 0.00 0.00 50 1014.6
20260902185716 27 9 6.4 9.7 0.00 0.00 0.00 50 1014.7
20260902185212 27 20 6.4 6.4 0.00 0.00 0.00 51 1014.6
20260902184707 27 59 3.2 9.7 0.00 0.00 0.00 53 1014.9
20260902184203 27 39 3.2 3.2 0.00 0.00 0.00 52 1014.7
20260902183658 27 94 1.6 11.3 0.00 0.00 0.00 51 1015.0
20260902183155 27 97 8.0 11.3 0.00 0.00 0.00 51 1014.7
20260902182650 27 208 1.6 4.8 0.00 0.00 0.00 50 1014.9
20260902182147 27 26 6.4 9.7 0.00 0.00 0.00 50 1015.0
20260902181643 27 167 1.6 4.8 0.00 0.00 0.00 50 1014.9
20260902181142 27 116 6.4 9.7 0.00 0.00 0.00 50 1014.7
20260902180641 28 210 4.8 9.7 0.00 0.00 0.00 50 1014.9
20260902180137 27 276 0.0 6.4 0.00 0.00 0.00 52 1014.7
20260902175638 27 143 4.8 9.7 0.00 0.00 0.00 52 1014.9
20260902175134 27 83 6.4 12.9 0.00 0.00 0.00 51 1015.0
20260902174630 27 69 4.8 9.7 0.00 0.00 0.00 47 1015.2
20260902174125 27 103 3.2 4.8 0.00 0.00 0.00 51 1015.0
20260902173620 27 111 9.7 14.5 0.00 0.00 0.00 50 1015.1
20260902173116 27 103 3.2 6.4 0.00 0.00 0.00 54 1015.2
20260902172615 27 38 3.2 4.8 0.00 0.00 0.00 51 1015.3
20260902172109 27 349 3.2 9.7 0.00 0.00 0.00 53 1015.4
20260902171605 26 162 3.2 4.8 0.00 0.00 0.00 54 1015.5
20260902171101 27 113 4.8 12.9 0.00 0.00 0.00 55 1015.3
20260902170556 28 26 1.6 6.4 0.00 0.00 0.00 52 1015.4
20260902170052 27 148 3.2 9.7 0.00 0.00 0.00 51 1015.1
20260902165551 26 140 0.0 6.4 0.00 0.00 0.00 55 1015.1
20260902165045 27 139 3.2 4.8 0.00 0.00 0.00 54 1015.0
20260902164540 26 88 3.2 6.4 0.00 0.00 0.00 58 1015.3
20260902164034 26 113 4.8 9.7 0.00 0.00 0.00 56 1014.9
20260902163530 25 323 3.2 9.7 0.00 0.00 0.00 59 1015.2
20260902163027 27 89 3.2 4.8 0.00 0.00 0.00 54 1015.2
20260902162521 26 77 6.4 11.3 0.00 0.00 0.00 58 1015.1
20260902162017 26 71 6.4 9.7 0.00 0.00 0.00 54 1015.1
20260902161511 25 145 3.2 6.4 0.00 0.00 0.00 59 1015.3
20260902161007 26 109 4.8 6.4 0.00 0.00 0.00 56 1015.3
20260902160503 27 104 6.4 9.7 0.00 0.00 0.00 56 1015.3
20260902160001 26 77 6.4 6.4 0.00 0.00 0.00 57 1015.1
20260902155456 25 146 4.8 11.3 0.00 0.00 0.00 57 1014.9
20260902154950 25 92 4.8 11.3 0.00 0.00 0.00 58 1014.9
20260902154446 25 52 3.2 6.4 0.00 0.00 0.00 61 1014.7
20260902153945 25 139 4.8 4.8 0.00 0.00 0.00 60 1015.0
20260902153438 23 74 1.6 3.2 0.00 0.00 0.00 66 1015.3
20260902152933 25 20 1.6 9.7 0.00 0.00 0.00 64 1015.2
20260902152424 25 105 3.2 3.2 0.00 0.00 0.00 67 1015.2
20260902151919 24 99 1.6 3.2 0.00 0.00 0.00 64 1015.3
20260902151415 25 19 4.8 4.8 0.00 0.00 0.00 64 1015.2
20260902150909 25 61 6.4 6.4 0.00 0.00 0.00 62 1015.2
20260902150405 25 199 1.6 3.2 0.00 0.00 0.00 60 1015.3
20260902145904 25 87 4.8 6.4 0.00 0.00 0.00 65 1015.3
20260902145400 25 93 3.2 3.2 0.00 0.00 0.00 66 1015.5
20260902144854 23 93 3.2 3.2 0.00 0.00 0.00 71 1015.6
20260902144351 23 17 3.2 3.2 0.00 0.00 0.00 72 1015.6
20260902143845 22 105 1.6 3.2 0.00 0.00 0.00 78 1015.7
20260902143339 23 277 1.6 1.6 0.00 0.00 0.00 76 1015.9
20260902142836 22 102 1.6 1.6 0.00 0.00 0.00 76 1015.8
20260902142332 22 104 1.6 3.2 0.00 0.00 0.00 80 1015.6
20260902141826 21 145 0.0 0.0 0.00 0.00 0.00 82 1015.6
20260902141322 22 79 1.6 1.6 0.00 0.00 0.00 81 1015.5
20260902140821 22 66 0.0 1.6 0.00 0.00 0.00 76 1015.5
20260902140317 22 187 0.0 1.6 0.00 0.00 0.00 75 1015.7
20260902135816 22 97 1.6 3.2 0.00 0.00 0.00 74 1015.4
20260902135312 22 54 0.0 1.6 0.00 0.00 0.00 76 1015.5
20260902134811 22 159 0.0 0.0 0.00 0.00 0.00 78 1015.4
20260902134306 22 211 0.0 1.6 0.00 0.00 0.00 76 1015.4
20260902133801 22 133 0.0 3.2 0.00 0.00 0.00 73 1015.3
20260902133301 22 188 0.0 0.0 0.00 0.00 0.00 78 1015.6
20260902132756 22 7 1.6 3.2 0.00 0.00 0.00 77 1015.5
20260902132252 22 120 0.0 0.0 0.00 0.00 0.00 79 1015.5
20260902131747 21 163 0.0 0.0 0.00 0.00 0.00 81 1015.6
20260902131243 21 43 0.0 1.6 0.00 0.00 0.00 82 1015.5
20260902130742 21 127 0.0 0.0 0.00 0.00 0.00 83 1015.5
20260902130239 21 33 1.6 1.6 0.00 0.00 0.00 82 1015.5
20260902125734 21 131 1.6 3.2 0.00 0.00 0.00 85 1015.4
20260902125230 21 58 1.6 3.2 0.00 0.00 0.00 85 1015.4
20260902124726 21 98 0.0 3.2 0.00 0.00 0.00 84 1015.3
20260902124221 21 176 0.0 0.0 0.00 0.00 0.00 85 1015.4
20260902123716 20 88 1.6 1.6 0.00 0.00 0.00 89 1015.5
20260902123207 19 143 0.0 0.0 0.00 0.00 0.00 95 1015.5
20260902122705 18 175 0.0 0.0 0.00 0.00 0.00 95 1015.4
20260902122202 18 164 0.0 0.0 0.00 0.00 0.00 95 1015.2
20260902121656 17 164 0.0 0.0 0.00 0.00 0.00 95 1015.2
20260902121151 17 166 0.0 0.0 0.00 0.00 0.00 95 1015.4
20260902120647 17 116 1.6 1.6 0.00 0.00 0.00 95 1015.2
20260902120143 17 104 0.0 1.6 0.00 0.00 0.00 96 1015.4
20260902115638 17 130 0.0 1.6 0.00 0.00 0.00 96 1015.5
20260902115134 17 155 0.0 0.0 0.00 0.00 0.00 96 1015.4
20260902114629 17 185 0.0 0.0 0.00 0.00 0.00 96 1015.3
20260902114129 17 186 0.0 0.0 0.00 0.00 0.00 96 1015.3
20260902113624 17 186 0.0 0.0 0.00 0.00 0.00 96 1015.5
20260902113119 17 186 0.0 0.0 0.00 0.00 0.00 96 1015.6
20260902112609 17 186 0.0 0.0 0.00 0.00 0.00 96 1015.3
20260902112106 17 172 0.0 0.0 0.00 0.00 0.00 96 1015.4
20260902111602 17 169 0.0 0.0 0.00 0.00 0.00 96 1015.5
20260902111057 16 158 0.0 0.0 0.00 0.00 0.00 96 1015.3
20260902110553 16 157 0.0 0.0 0.00 0.00 0.00 96 1015.2
20260902110049 17 189 0.0 0.0 0.00 0.00 0.00 96 1015.2
20260902105543 17 191 0.0 0.0 0.00 0.00 0.00 95 1015.1
20260902105043 17 203 0.0 0.0 0.00 0.00 0.00 95 1015.1
20260902104538 17 204 0.0 0.0 0.00 0.00 0.00 95 1015.2
20260902104033 17 204 0.0 0.0 0.00 0.00 0.00 94 1015.1
20260902103529 17 204 0.0 0.0 0.00 0.00 0.00 94 1015.2
20260902103024 17 205 0.0 0.0 0.00 0.00 0.00 93 1015.4
20260902102521 17 167 0.0 0.0 0.00 0.00 0.00 93 1015.4
20260902102017 18 185 0.0 0.0 0.00 0.00 0.00 93 1015.4
20260902101512 18 141 0.0 0.0 0.00 0.00 0.00 93 1015.3
20260902101010 18 220 0.0 0.0 0.00 0.00 0.00 93 1015.6
20260902100506 18 241 0.0 0.0 0.00 0.00 0.00 91 1015.6
20260902100000 18 187 0.0 0.0 0.00 0.00 0.00 91 1015.5
20260902095500 18 133 0.0 1.6 0.00 0.00 0.00 91 1015.5
20260902094959 18 172 0.0 0.0 0.00 0.00 0.00 92 1015.7
20260902094455 18 136 1.6 1.6 0.00 0.00 0.00 92 1015.7
20260902093955 18 181 0.0 0.0 0.00 0.00 0.00 93 1015.7
20260902093445 18 223 0.0 0.0 0.00 0.00 0.00 93 1015.8
20260902092944 17 201 0.0 0.0 0.00 0.00 0.00 93 1015.6
20260902092440 18 201 0.0 0.0 0.00 0.00 0.00 92 1015.7
20260902091940 18 184 0.0 0.0 0.00 0.00 0.00 91 1015.5
20260902091435 18 134 0.0 0.0 0.00 0.00 0.00 91 1015.5
20260902090932 18 184 0.0 0.0 0.00 0.00 0.00 89 1015.6
20260902090432 19 184 0.0 0.0 0.00 0.00 0.00 88 1015.7
20260902085930 19 65 1.6 1.6 0.00 0.00 0.00 87 1015.6
20260902085426 19 121 3.2 3.2 0.00 0.00 0.00 87 1015.6
20260902084921 19 136 1.6 1.6 0.00 0.00 0.00 87 1015.8
20260902084418 19 165 1.6 3.2 0.00 0.00 0.00 87 1015.6
20260902083913 19 193 0.0 0.0 0.00 0.00 0.00 89 1015.5
20260902083413 19 188 0.0 0.0 0.00 0.00 0.00 89 1015.5
20260902082908 19 188 0.0 0.0 0.00 0.00 0.00 89 1015.7
20260902082403 19 199 0.0 0.0 0.00 0.00 0.00 88 1015.4
20260902081900 18 174 0.0 0.0 0.00 0.00 0.00 90 1015.3
20260902081355 18 190 0.0 0.0 0.00 0.00 0.00 90 1015.1
20260902080850 18 192 0.0 0.0 0.00 0.00 0.00 89 1015.1
20260902080347 19 193 0.0 0.0 0.00 0.00 0.00 88 1015.1
20260902075846 19 189 0.0 0.0 0.00 0.00 0.00 87 1014.9
20260902075343 19 178 0.0 0.0 0.00 0.00 0.00 86 1014.5
20260902074843 20 178 0.0 0.0 0.00 0.00 0.00 85 1014.5